Location: Unspecified
(31.4020°N, 0.0000°E)
Time: 04:18:56
(UTC+00:00)

ESTCUBE 1 - Visible Passes

Search period start: 04 April 2026 00:00
Search period end: 14 April 2026 00:00
Orbit: 621 x 630 km, 97.7° (Epoch: 29 March)

Date Brightness Start Highest point End Pass type
(mag) Time Alt. Az. Time Alt. Az. Time Alt. Az.
4 Apr ? 20:14:02 17° NNE 20:14:02 17° NNE 20:15:26 10° NNE visible
5 Apr ? 20:33:08 22° NNE 20:33:08 22° NNE 20:34:49 10° N visible
6 Apr ? 20:52:13 24° N 20:52:13 24° N 20:53:57 10° N visible
7 Apr ? 21:11:18 21° NNW 21:11:18 21° NNW 21:12:52 10° NNW visible
8 Apr ? 19:53:07 14° NE 19:53:07 14° NE 19:54:18 10° NNE visible
8 Apr ? 21:30:23 17° NW 21:30:23 17° NW 21:31:33 10° NNW visible
9 Apr ? 20:12:12 20° NE 20:12:12 20° NE 20:14:05 10° NNE visible
9 Apr ? 21:49:28 12° NW 21:49:28 12° NW 21:49:52 10° NW visible
10 Apr ? 20:31:17 26° NNE 20:31:17 26° NNE 20:33:28 10° N visible
11 Apr ? 20:50:21 30° N 20:50:21 30° N 20:52:35 10° N visible
12 Apr ? 21:09:25 27° NNW 21:09:25 27° NNW 21:11:30 10° NNW visible
13 Apr ? 19:51:13 15° NE 19:51:13 15° NE 19:52:50 10° NNE visible
13 Apr ? 21:28:29 20° NW 21:28:29 20° NW 21:30:10 10° NNW visible
